This is the latest recevied weather packets stored in our database for station/object KD7CIH. If no packets are shown the sender has not sent any weather packets the latest 1 day(s).
| Time | Temp. | Humidity | Pressure | Rain* | Wind** | Luminosity | Snow |
|---|---|---|---|---|---|---|---|
| 1778094333 | 4.44° C | 54% | 1014.7 hPa | 0 mm | - | - | - |
| 1778092835 | 3.89° C | 51% | 1014.7 hPa | 0 mm | - | - | - |
| 1778092533 | 3.89° C | 54% | 1014.7 hPa | 0 mm | - | - | - |
| 1778092235 | 3.89° C | 53% | 1014.9 hPa | 0 mm | - | - | - |
| 1778091334 | 3.33° C | 53% | 1015.1 hPa | 0 mm | - | - | - |
| 1778090736 | 3.33° C | 57% | 1014.9 hPa | 0 mm | - | - | - |
| 1778089834 | 2.78° C | 51% | 1014.9 hPa | 0 mm | - | - | - |
| 1778088439 | 2.22° C | 54% | 1014.8 hPa | 0.25 mm | - | - | - |
| 1778088012 | 2.22° C | 58% | 1014.8 hPa | 0.25 mm | - | - | - |
| 1778087111 | 1.67° C | 58% | 1014.7 hPa | 0.25 mm | - | - | - |
| 1778084106 | 0.56° C | 58% | 1014.6 hPa | 0 mm | - | - | - |
| 1778082436 | 0.56° C | 63% | 1014.7 hPa | 0 mm | - | - | - |
| 1778082008 | 0.56° C | 59% | 1014.6 hPa | 0 mm | - | - | - |
| 1778079906 | 0° C | 64% | 1014.2 hPa | 0 mm | - | - | - |
| 1778076899 | -1.11° C | 68% | 1014 hPa | 0 mm | - | - | - |
| 1778076000 | -1.11° C | 69% | 1013.9 hPa | 0 mm | - | - | - |
| 1778075099 | -1.11° C | 71% | 1013.7 hPa | 0 mm | - | - | - |
| 1778074200 | -1.67° C | 74% | 1013.5 hPa | 0 mm | - | - | - |
| 1778073600 | -2.22° C | 76% | 1013.4 hPa | 0 mm | - | - | - |
| 1778072697 | -2.22° C | 78% | 1013.1 hPa | 0 mm | - | - | - |
| 1778072399 | -2.22° C | 81% | 1013.1 hPa | 0 mm | - | - | - |
| 1778072091 | -2.22° C | 81% | 1013 hPa | 0 mm | - | - | - |
| 1778071488 | -2.78° C | 82% | 1013 hPa | 0 mm | - | - | - |
| 1778070584 | -2.78° C | 83% | 1012.8 hPa | 0 mm | - | - | - |
| 1778069086 | -2.78° C | 83% | 1012.3 hPa | 0 mm | - | - | - |
* Rain latest hour (hover to see other rain measurements)
** Current wind speed in m/s (hover to see current wind gust speed)